Home   Weather   Ludwigshafen   Past weeks

Flag for Germany Past Weather in Ludwigshafen, Rhineland-Palatinate, Germany — Yesterday and Last 2 Weeks

Now
68 °F

Clear.


Feels Like: 68 °F
Forecast: 56 / 69 °F
Wind: 3 mph from South

Location: Mannheim City

Current Time: Sep 30, 2016 at 12:10:28 AM

Latest Report: Sep 29, 2016 at 10:20 PM


Visibility: 10 mi

Pressure: 30.01 "Hg

Humidity: 56%

Dew Point: 52 °F

Location of LudwigshafenLocation

Past Weather in Ludwigshafen — Graph

°F

Ludwigshafen Temperature Yesterday

Maximum temperature yesterday: 79 °F (at 4:50 PM)
Minimum temperature yesterday: 55 °F (at 5:50 AM)
Average temperature yesterday: 68 °F

High & Low Weather Summary for the Past Weeks

 TemperatureHumidityPressure
High79 °F (Sep 15, 12:50 PM)100% (Sep 16, 5:50 AM)30.39 "Hg (Sep 16, 5:50 AM)
Low45 °F (Sep 22, 5:50 AM)32% (Sep 29, 5:50 PM)29.80 "Hg (Sep 15, 5:50 AM)
Average65 °F69%30.11 "Hg
* Reported Sep 15 5:50 AM — Sep 29 10:20 PM, Ludwigshafen, Weather by CustomWeather, © 2016

Note: Actual official high and low records may vary slightly from our data, if they occured in-between our weather recording intervals... More about our weather records

Advertising

Ludwigshafen Weather History for the Previous 24 Hours

Scroll right to see more
 ConditionsComfort  
Time TempWeatherWind HumidityBarometerVisibility
10:20 PM
Thu, Sep 29
68 °FClear.3 mph56%30.01 "Hg10 mi
9:50 PM68 °FClear.3 mph56%30.01 "Hg10 mi
9:20 PM70 °FPassing clouds.6 mph50%30.01 "HgN/A
8:50 PM72 °FPassing clouds.7 mph47%30.01 "HgN/A
8:20 PM72 °FPassing clouds.7 mph47%30.01 "HgN/A
7:50 PM73 °FPassing clouds.7 mph44%30.01 "HgN/A
7:20 PM73 °FPassing clouds.8 mph44%30.01 "HgN/A
6:50 PM75 °FPassing clouds.9 mph39%30.01 "HgN/A
6:20 PM77 °FPassing clouds.12 mph34%30.01 "HgN/A
5:50 PM79 °FPassing clouds.12 mph32%30.01 "HgN/A
4:50 PM79 °FPassing clouds.12 mph37%30.04 "HgN/A
4:20 PM77 °FPassing clouds.10 mph47%30.04 "HgN/A
3:50 PM77 °FPassing clouds.10 mph47%30.07 "HgN/A
3:20 PM77 °FPassing clouds.12 mph47%30.07 "HgN/A
2:50 PM75 °FPassing clouds.9 mph50%30.09 "HgN/A
2:20 PM75 °FPassing clouds.12 mph47%30.09 "HgN/A
1:50 PM75 °FPassing clouds.8 mph50%30.12 "HgN/A
1:20 PM73 °FPassing clouds.12 mph50%30.12 "HgN/A
12:50 PM72 °FPassing clouds.10 mph57%30.15 "HgN/A
12:20 PM70 °FPassing clouds.9 mph60%30.15 "HgN/A
11:50 AM68 °FPassing clouds.9 mph64%30.18 "HgN/A
11:20 AM68 °FPassing clouds.9 mph64%30.18 "HgN/A
10:50 AM66 °FPassing clouds.7 mph68%30.21 "HgN/A
10:20 AM63 °FPassing clouds.8 mph73%30.21 "HgN/A
9:50 AM63 °FPassing clouds.7 mph73%30.21 "HgN/A
9:20 AM61 °FPassing clouds.6 mph77%30.21 "HgN/A
8:50 AM59 °FPassing clouds.5 mph88%30.21 "HgN/A
8:20 AM57 °FSunny.7 mph88%30.21 "Hg10 mi
7:50 AM55 °FPassing clouds.5 mph100%30.24 "HgN/A
7:20 AM55 °FClear.5 mph94%30.24 "Hg10 mi
6:50 AM55 °FClear.3 mph94%30.24 "Hg10 mi
6:20 AM55 °FClear.3 mph94%30.24 "Hg10 mi
5:50 AM55 °FClear.3 mph94%30.24 "Hg10 mi
Weather by CustomWeather, © 2016

See weather overviewHow to use our weather pages